Location: White Mills Observatory
(37.5374°N, 86.0303°W)
Time: 01:07:23
(UTC-05:00)

Hubble Space Telescope - Visible Passes

Search period start: 29 November 2014 00:00
Search period end: 09 December 2014 00:00
Orbit: 546 x 549 km, 28.5° (Epoch: 27 November)

Date Brightness Start Highest point End Pass type
(mag) Time Alt. Az. Time Alt. Az. Time Alt. Az.
29 Nov 2.9 05:24:32 19° S 05:24:32 19° S 05:26:50 10° SE visible
30 Nov 3.2 05:17:28 16° SSE 05:17:28 16° SSE 05:18:57 10° SSE visible
01 Dec 3.5 05:10:24 12° SSE 05:10:24 12° SSE 05:10:58 10° SSE visible
